Time,TemperatureF,DewpointF,PressureIn,WindDirection,WindDirectionDegrees,WindSpeedMPH,WindSpeedGustMPH,Humidity,HourlyPrecipIn,Conditions,Clouds,dailyrainin,SolarRadiationWatts/m^2,SoftwareType,DateUTC
2013-12-03 00:02:00,39.0,39.0,-100.00,NNW,331,1.0,3.0,100,0.00,,,0.00,0.000000,,2013-12-03 05:02:00,
2013-12-03 00:12:00,39.0,39.0,-100.00,NNW,331,1.0,3.0,100,0.00,,,0.00,0.000000,,2013-12-03 05:12:00,
2013-12-03 00:43:00,39.0,39.0,-100.00,WSW,244,0.0,2.0,100,0.00,,,0.00,0.000000,,2013-12-03 05:43:00,
2013-12-03 00:53:00,39.0,39.0,-100.00,WSW,244,0.0,2.0,100,0.00,,,0.00,0.000000,,2013-12-03 05:53:00,
2013-12-03 01:02:00,39.0,39.0,-100.00,WSW,244,0.0,2.0,100,0.00,,,0.00,0.000000,,2013-12-03 06:02:00,
2013-12-03 01:12:00,39.0,39.0,-100.00,WSW,244,0.0,2.0,100,0.00,,,0.00,0.000000,,2013-12-03 06:12:00,
2013-12-03 01:42:00,38.0,38.0,-100.00,WSW,254,1.0,2.0,100,0.00,,,0.00,0.000000,,2013-12-03 06:42:00,
2013-12-03 01:53:00,38.0,38.0,-100.00,WSW,254,1.0,2.0,100,0.00,,,0.00,0.000000,,2013-12-03 06:53:00,
2013-12-03 02:02:00,38.0,38.0,-100.00,WSW,254,1.0,2.0,100,0.00,,,0.00,0.000000,,2013-12-03 07:02:00,
2013-12-03 02:13:00,38.0,38.0,-100.00,WSW,254,1.0,2.0,100,0.00,,,0.00,0.000000,,2013-12-03 07:13:00,
2013-12-03 02:42:00,35.0,35.0,-100.00,SSE,151,0.0,2.0,100,0.00,,,0.00,0.000000,,2013-12-03 07:42:00,
2013-12-03 02:52:00,35.0,35.0,-100.00,SSE,151,0.0,2.0,100,0.00,,,0.00,0.000000,,2013-12-03 07:52:00,
2013-12-03 03:02:00,35.0,35.0,-100.00,SSE,151,0.0,2.0,100,0.00,,,0.00,0.000000,,2013-12-03 08:02:00,
2013-12-03 03:12:00,35.0,35.0,-100.00,SSE,151,0.0,2.0,100,0.00,,,0.00,0.000000,,2013-12-03 08:12:00,
2013-12-03 03:42:00,36.0,36.0,-100.00,ENE,68,0.0,1.0,100,0.00,,,-99.99,0.000000,,2013-12-03 08:42:00,
2013-12-03 03:53:00,36.0,36.0,-100.00,ENE,68,0.0,1.0,100,0.00,,,-99.99,0.000000,,2013-12-03 08:53:00,
2013-12-03 04:02:00,36.0,36.0,-100.00,ENE,68,0.0,1.0,100,0.00,,,-99.99,0.000000,,2013-12-03 09:02:00,
2013-12-03 04:11:00,36.0,36.0,-100.00,ENE,68,0.0,1.0,100,0.00,,,-99.99,0.000000,,2013-12-03 09:11:00,
2013-12-03 04:43:00,36.0,36.0,-100.00,SW,220,1.0,2.0,100,0.00,,,0.00,0.000000,,2013-12-03 09:43:00,
2013-12-03 04:54:00,36.0,36.0,-100.00,SW,220,1.0,2.0,100,0.00,,,0.00,0.000000,,2013-12-03 09:54:00,
2013-12-03 05:03:00,36.0,36.0,-100.00,SW,220,1.0,2.0,100,0.00,,,0.00,0.000000,,2013-12-03 10:03:00,
2013-12-03 05:13:00,36.0,36.0,-100.00,SW,220,1.0,2.0,100,0.00,,,0.00,0.000000,,2013-12-03 10:13:00,
2013-12-03 05:42:00,34.0,34.0,-100.00,WSW,258,2.0,3.0,100,0.00,,,0.00,0.000000,,2013-12-03 10:42:00,
2013-12-03 05:53:00,34.0,34.0,-100.00,WSW,258,2.0,3.0,100,0.00,,,0.00,0.000000,,2013-12-03 10:53:00,
2013-12-03 06:03:00,34.0,34.0,-100.00,WSW,258,2.0,3.0,100,0.00,,,0.00,0.000000,,2013-12-03 11:03:00,
2013-12-03 06:12:00,34.0,34.0,-100.00,WSW,258,2.0,3.0,100,0.00,,,0.00,0.000000,,2013-12-03 11:12:00,
2013-12-03 06:42:00,33.0,33.0,-100.00,WNW,297,0.0,2.0,100,0.00,,,0.00,0.000000,,2013-12-03 11:42:00,
2013-12-03 06:52:00,33.0,33.0,-100.00,WNW,297,0.0,2.0,100,0.00,,,0.00,0.000000,,2013-12-03 11:52:00,
2013-12-03 07:02:00,33.0,33.0,-100.00,WNW,297,0.0,2.0,100,0.00,,,0.00,0.000000,,2013-12-03 12:02:00,
2013-12-03 07:12:00,33.0,33.0,-100.00,WNW,297,0.0,2.0,100,0.00,,,0.00,0.000000,,2013-12-03 12:12:00,
2013-12-03 07:42:00,35.0,35.0,-100.00,NE,36,1.0,1.0,100,0.00,,,0.00,1.000000,,2013-12-03 12:42:00,
2013-12-03 07:52:00,35.0,35.0,-100.00,NE,36,1.0,1.0,100,0.00,,,0.00,1.000000,,2013-12-03 12:52:00,
2013-12-03 08:02:00,35.0,35.0,-100.00,NE,36,1.0,1.0,100,0.00,,,0.00,1.000000,,2013-12-03 13:02:00,
2013-12-03 08:11:00,35.0,35.0,-100.00,NE,36,1.0,1.0,100,0.00,,,0.00,1.000000,,2013-12-03 13:11:00,
2013-12-03 08:42:00,40.0,40.0,-100.00,East,88,1.0,4.0,100,0.00,,,0.00,52.000000,,2013-12-03 13:42:00,
2013-12-03 08:52:00,40.0,40.0,-100.00,East,88,1.0,4.0,100,0.00,,,0.00,52.000000,,2013-12-03 13:52:00,
2013-12-03 09:02:00,40.0,40.0,-100.00,East,88,1.0,4.0,100,0.00,,,0.00,52.000000,,2013-12-03 14:02:00,
2013-12-03 09:11:00,40.0,40.0,-100.00,East,88,1.0,4.0,100,0.00,,,0.00,52.000000,,2013-12-03 14:11:00,
2013-12-03 09:42:00,46.0,46.0,-100.00,NNW,330,2.0,5.0,100,0.00,,,0.00,191.000000,,2013-12-03 14:42:00,
2013-12-03 09:52:00,46.0,46.0,-100.00,NNW,330,2.0,5.0,100,0.00,,,0.00,191.000000,,2013-12-03 14:52:00,
2013-12-03 10:02:00,46.0,46.0,-100.00,NNW,330,2.0,5.0,100,0.00,,,0.00,191.000000,,2013-12-03 15:02:00,
2013-12-03 10:11:00,46.0,46.0,-100.00,NNW,330,2.0,5.0,100,0.00,,,0.00,191.000000,,2013-12-03 15:11:00,
2013-12-03 10:44:00,57.0,45.0,-100.00,South,169,3.0,6.0,64,0.00,,,0.00,327.000000,,2013-12-03 15:44:00,
2013-12-03 10:54:00,57.0,45.0,-100.00,South,169,3.0,6.0,64,0.00,,,0.00,327.000000,,2013-12-03 15:54:00,
2013-12-03 11:04:00,57.0,45.0,-100.00,South,169,3.0,6.0,64,0.00,,,0.00,327.000000,,2013-12-03 16:04:00,
2013-12-03 11:13:00,57.0,45.0,-100.00,South,169,3.0,6.0,64,0.00,,,0.00,327.000000,,2013-12-03 16:13:00,
2013-12-03 11:43:00,62.0,47.0,-100.00,South,170,3.0,7.0,59,0.00,,,0.00,282.000000,,2013-12-03 16:43:00,
2013-12-03 11:53:00,62.0,47.0,-100.00,South,170,3.0,7.0,59,0.00,,,0.00,282.000000,,2013-12-03 16:53:00,
2013-12-03 12:02:00,62.0,47.0,-100.00,South,170,3.0,7.0,59,0.00,,,0.00,282.000000,,2013-12-03 17:02:00,
2013-12-03 12:12:00,62.0,47.0,-100.00,South,170,3.0,7.0,59,0.00,,,0.00,282.000000,,2013-12-03 17:12:00,
2013-12-03 12:42:00,62.0,47.0,-100.00,SW,218,4.0,7.0,57,0.00,,,0.00,255.000000,,2013-12-03 17:42:00,
2013-12-03 12:53:00,62.0,47.0,-100.00,SW,218,4.0,7.0,57,0.00,,,0.00,255.000000,,2013-12-03 17:53:00,
2013-12-03 13:02:00,62.0,47.0,-100.00,SW,218,4.0,7.0,57,0.00,,,0.00,255.000000,,2013-12-03 18:02:00,
2013-12-03 13:12:00,62.0,47.0,-100.00,SW,218,4.0,7.0,57,0.00,,,0.00,255.000000,,2013-12-03 18:12:00,
2013-12-03 13:42:00,65.0,47.0,-100.00,ESE,121,2.0,12.0,53,0.00,,,0.00,354.000000,,2013-12-03 18:42:00,
2013-12-03 13:53:00,65.0,47.0,-100.00,ESE,121,2.0,12.0,53,0.00,,,0.00,354.000000,,2013-12-03 18:53:00,
2013-12-03 14:02:00,65.0,47.0,-100.00,ESE,121,2.0,12.0,53,0.00,,,0.00,354.000000,,2013-12-03 19:02:00,
2013-12-03 14:11:00,65.0,47.0,-100.00,ESE,121,2.0,12.0,53,0.00,,,0.00,354.000000,,2013-12-03 19:11:00,
2013-12-03 14:42:00,62.0,47.0,-100.00,SW,223,3.0,8.0,58,0.00,,,0.00,244.000000,,2013-12-03 19:42:00,
2013-12-03 14:52:00,62.0,47.0,-100.00,SW,223,3.0,8.0,58,0.00,,,0.00,244.000000,,2013-12-03 19:52:00,
2013-12-03 15:02:00,62.0,47.0,-100.00,SW,223,3.0,8.0,58,0.00,,,0.00,244.000000,,2013-12-03 20:02:00,
2013-12-03 15:11:00,62.0,47.0,-100.00,SW,223,3.0,8.0,58,0.00,,,0.00,244.000000,,2013-12-03 20:11:00,
2013-12-03 15:42:00,63.0,48.0,-100.00,South,169,2.0,8.0,58,0.00,,,0.00,206.000000,,2013-12-03 20:42:00,
2013-12-03 15:53:00,63.0,48.0,-100.00,South,169,2.0,8.0,58,0.00,,,0.00,206.000000,,2013-12-03 20:53:00,
2013-12-03 16:02:00,63.0,48.0,-100.00,South,169,2.0,8.0,58,0.00,,,0.00,206.000000,,2013-12-03 21:02:00,
2013-12-03 16:12:00,63.0,48.0,-100.00,South,169,2.0,8.0,58,0.00,,,0.00,206.000000,,2013-12-03 21:12:00,
2013-12-03 16:44:00,58.0,50.0,-100.00,South,172,1.0,6.0,75,0.00,,,0.00,102.000000,,2013-12-03 21:44:00,
2013-12-03 16:54:00,58.0,50.0,-100.00,South,172,1.0,6.0,75,0.00,,,0.00,102.000000,,2013-12-03 21:54:00,
2013-12-03 17:03:00,58.0,50.0,-100.00,South,172,1.0,6.0,75,0.00,,,0.00,102.000000,,2013-12-03 22:03:00,
2013-12-03 17:13:00,58.0,50.0,-100.00,South,172,1.0,6.0,75,0.00,,,0.00,102.000000,,2013-12-03 22:13:00,
2013-12-03 17:43:00,53.0,51.0,-100.00,ESE,123,1.0,2.0,93,0.00,,,0.00,17.000000,,2013-12-03 22:43:00,
2013-12-03 17:53:00,53.0,51.0,-100.00,ESE,123,1.0,2.0,93,0.00,,,0.00,17.000000,,2013-12-03 22:53:00,
2013-12-03 18:03:00,53.0,51.0,-100.00,ESE,123,1.0,2.0,93,0.00,,,0.00,17.000000,,2013-12-03 23:03:00,
2013-12-03 18:12:00,53.0,51.0,-100.00,ESE,123,1.0,2.0,93,0.00,,,0.00,17.000000,,2013-12-03 23:12:00,
2013-12-03 18:42:00,51.0,51.0,-100.00,ESE,110,1.0,3.0,99,0.00,,,0.00,0.000000,,2013-12-03 23:42:00,
2013-12-03 18:52:00,51.0,51.0,-100.00,ESE,110,1.0,3.0,99,0.00,,,0.00,0.000000,,2013-12-03 23:52:00,
2013-12-03 19:02:00,51.0,51.0,-100.00,ESE,110,1.0,3.0,99,0.00,,,0.00,0.000000,,2013-12-04 00:02:00,
2013-12-03 19:11:00,51.0,51.0,-100.00,ESE,110,1.0,3.0,99,0.00,,,0.00,0.000000,,2013-12-04 00:11:00,
2013-12-03 19:42:00,52.0,51.0,-100.00,ESE,104,1.0,3.0,98,0.00,,,0.00,0.000000,,2013-12-04 00:42:00,
2013-12-03 19:52:00,52.0,51.0,-100.00,ESE,104,1.0,3.0,98,0.00,,,0.00,0.000000,,2013-12-04 00:52:00,
2013-12-03 20:02:00,52.0,51.0,-100.00,ESE,104,1.0,3.0,98,0.00,,,0.00,0.000000,,2013-12-04 01:02:00,
2013-12-03 20:11:00,52.0,51.0,-100.00,ESE,104,1.0,3.0,98,0.00,,,0.00,0.000000,,2013-12-04 01:11:00,
2013-12-03 20:42:00,52.0,51.0,-100.00,West,260,1.0,4.0,98,0.00,,,0.00,0.000000,,2013-12-04 01:42:00,
2013-12-03 20:52:00,52.0,51.0,-100.00,West,260,1.0,4.0,98,0.00,,,0.00,0.000000,,2013-12-04 01:52:00,
2013-12-03 21:02:00,52.0,51.0,-100.00,West,260,1.0,4.0,98,0.00,,,0.00,0.000000,,2013-12-04 02:02:00,
2013-12-03 21:11:00,52.0,51.0,-100.00,West,260,1.0,4.0,98,0.00,,,0.00,0.000000,,2013-12-04 02:11:00,
2013-12-03 21:42:00,52.0,52.0,-100.00,SW,214,1.0,4.0,99,0.00,,,0.00,0.000000,,2013-12-04 02:42:00,
2013-12-03 21:52:00,52.0,52.0,-100.00,SW,214,1.0,4.0,99,0.00,,,0.00,0.000000,,2013-12-04 02:52:00,
2013-12-03 22:02:00,52.0,52.0,-100.00,SW,214,1.0,4.0,99,0.00,,,0.00,0.000000,,2013-12-04 03:02:00,
2013-12-03 22:12:00,52.0,52.0,-100.00,SW,214,1.0,4.0,99,0.00,,,0.00,0.000000,,2013-12-04 03:12:00,
2013-12-03 22:44:00,51.0,50.0,-100.00,ESE,106,2.0,8.0,98,0.00,,,0.00,0.000000,,2013-12-04 03:44:00,
2013-12-03 22:54:00,51.0,50.0,-100.00,ESE,106,2.0,8.0,98,0.00,,,0.00,0.000000,,2013-12-04 03:54:00,
2013-12-03 23:03:00,51.0,50.0,-100.00,ESE,106,2.0,8.0,98,0.00,,,0.00,0.000000,,2013-12-04 04:03:00,
2013-12-03 23:13:00,51.0,50.0,-100.00,ESE,106,2.0,8.0,98,0.00,,,0.00,0.000000,,2013-12-04 04:13:00,
2013-12-03 23:43:00,51.0,50.0,-100.00,ESE,120,2.0,4.0,98,0.00,,,0.00,0.000000,,2013-12-04 04:43:00,
2013-12-03 23:52:00,51.0,50.0,-100.00,ESE,120,2.0,4.0,98,0.00,,,0.00,0.000000,,2013-12-04 04:52:00,